Home   Weather   Bamenda   Past weeks

Flag for Cameroon Past Weather in Bamenda, Cameroon — Yesterday and Last 2 Weeks

75 °F

Passing clouds.

Feels Like: 73 °F
Forecast: 56 / 83 °F
Wind: No wind

Location: Douala Obs.

Current Time: Oct 24, 2016 at 6:18:34 AM

Latest Report: Oct 24, 2016 at 5:00 AM

Visibility: 4 mi

Pressure: 29.80 "Hg (25.84 "Hg at 1240m altitude)

Humidity: 100%

Dew Point: 75 °F

Location of BamendaLocation

Past Weather in Bamenda — Graph


Bamenda Temperature Yesterday

Maximum temperature yesterday: 84 °F (at 3:00 PM)
Minimum temperature yesterday: 73 °F (at 7:00 AM)
Average temperature yesterday: 78 °F

High & Low Weather Summary for the Past Weeks

High90 °F (Oct 10, 2:00 PM)100% (Oct 10, 9:00 PM)29.95 "Hg (Oct 10, 9:00 PM)
Low72 °F (Oct 20, 2:00 AM)59% (Oct 21, 12:00 PM)29.74 "Hg (Oct 20, 4:00 PM)
Average80 °F87%29.86 "Hg
* Reported Oct 9 5:00 AM — Oct 24 5:00 AM, Bamenda, Weather by CustomWeather, © 2016

Note: Actual official high and low records may vary slightly from our data, if they occured in-between our weather recording intervals... More about our weather records


Bamenda Weather History for the Previous 24 Hours

Scroll right to see more
Time TempWeatherWind HumidityBarometerVisibility
5:00 AM
Mon, Oct 24
75 °FPassing clouds.No wind100%29.80 "Hg4 mi
4:00 AM77 °FPassing clouds.No wind94%29.80 "Hg5 mi
3:00 AM75 °FPassing clouds.No wind100%29.80 "Hg5 mi
2:00 AM75 °FPassing clouds.No wind100%29.83 "HgN/A
1:00 AM77 °FPassing clouds.No wind94%29.83 "HgN/A
12:00 AM77 °FPassing clouds.No wind94%29.89 "HgN/A
11:00 PM
Sun, Oct 23
77 °FPassing clouds.No wind94%29.89 "HgN/A
10:00 PM77 °FPassing clouds.No wind94%29.86 "HgN/A
9:00 PM77 °FPassing clouds.No wind94%29.86 "HgN/A
8:00 PM77 °FPassing clouds.No wind94%29.83 "HgN/A
7:00 PM79 °FPassing clouds.2 mph89%29.80 "HgN/A
6:00 PM81 °FScattered clouds.8 mph89%29.80 "HgN/A
5:00 PM82 °FPartly sunny.5 mph84%29.77 "HgN/A
4:00 PM84 °FPartly sunny.6 mph79%29.77 "HgN/A
3:00 PM84 °FPartly sunny.3 mph79%29.77 "HgN/A
2:00 PM82 °FPartly sunny.3 mph84%29.80 "HgN/A
1:00 PM82 °FPartly sunny.No wind79%29.86 "HgN/A
12:00 PM79 °FMostly cloudy.1 mph89%29.89 "Hg5 mi
11:00 AM77 °FMostly cloudy.1 mph94%29.92 "Hg4 mi
10:00 AM77 °FThunderstorms. Mostly cloudy.1 mph94%29.95 "Hg5 mi
9:00 AM75 °FThunderstorms. Cloudy.2 mph94%29.92 "Hg5 mi
8:00 AM73 °FThunderstorms. Cloudy.2 mph94%29.92 "Hg5 mi
7:00 AM73 °FThunderstorms. Broken clouds.2 mph94%29.89 "HgN/A
6:00 AM75 °FThunderstorms. Partly cloudy.No wind94%29.89 "Hg4 mi
Weather by CustomWeather, © 2016

See weather overviewHow to use our weather pages